User: anonymous   Login
Location: Godiavel Galaoual
(15.2485°N, 12.6604°W)
Time: 01:49:28
(UTC+00:00)
Language:

FO-99 - Orbit

View from above orbital plane
View from above orbital plane
View from above satellite
View from above satellite

Ground track
Ground track

The orbit data is extracted from the following two-line orbital elements,

1 43937U 19003F   21216.39141527  .00002012  00000-0  80539-4 0  9997
2 43937  97.1733 257.6493 0022475 198.0269 162.0175 15.25965218141573
Epoch (UTC): 04 August 2021 09:23:38
Eccentricity: 0.0022475
inclination: 97.1733°
perigee height: 472 km
apogee height: 503 km
right ascension of ascending node: 257.6493°
argument of perigee: 198.0269°
revolutions per day: 15.25965218
mean anomaly at epoch: 162.0175°
orbit number at epoch: 14157

The dashed part of the orbit path shows where the satellite is in the earth's shadow,  

DLR